timestamp,wind_dir_avg,wind_spd_avg,wind_spd_max_dir,wind_spd_gust,battery_voltage,lat,long
2021-08-23 00:04:01+00:00,97.0,2.09,99.0,2.76,12.81,47.59359,-54.27349
2021-08-23 00:14:01+00:00,92.0,1.68,85.0,2.4,12.65,47.59359,-54.27349
2021-08-23 00:24:01+00:00,95.0,2.43,98.0,2.97,12.65,47.59359,-54.27349
2021-08-23 00:34:01+00:00,84.0,1.62,90.0,2.14,12.65,47.59359,-54.27349
2021-08-23 00:44:01+00:00,67.0,1.18,57.0,1.62,12.65,47.59359,-54.27349
2021-08-23 00:54:01+00:00,39.0,3.23,38.0,3.62,12.65,47.59359,-54.27349
2021-08-23 01:04:01+00:00,9.0,3.23,15.0,4.01,12.65,47.59359,-54.27349
2021-08-23 01:14:01+00:00,5.0,2.89,5.0,3.46,12.65,47.59359,-54.27349
2021-08-23 01:24:01+00:00,3.0,3.34,3.0,3.73,12.65,47.59359,-54.27349
2021-08-23 01:34:01+00:00,3.0,2.56,4.0,3.01,12.65,47.59359,-54.27349
2021-08-23 01:44:01+00:00,2.0,2.35,10.0,2.76,12.65,47.59359,-54.27349
2021-08-23 01:54:01+00:00,355.0,1.88,356.0,2.08,12.65,47.59359,-54.27349
2021-08-23 02:04:01+00:00,343.0,1.9,342.0,2.16,12.65,47.59359,-54.27349
2021-08-23 02:14:01+00:00,341.0,1.86,329.0,2.19,12.65,47.59359,-54.27349
2021-08-23 02:24:01+00:00,341.0,1.8,350.0,2.16,12.65,47.59359,-54.27349
2021-08-23 02:34:01+00:00,322.0,1.25,325.0,1.52,12.65,47.59359,-54.27349
2021-08-23 02:44:01+00:00,326.0,1.19,327.0,1.42,12.65,47.59359,-54.27349
2021-08-23 02:54:01+00:00,320.0,1.74,328.0,2.15,12.65,47.59359,-54.27349
2021-08-23 03:04:01+00:00,338.0,1.91,341.0,2.27,12.65,47.59359,-54.27349
2021-08-23 03:14:01+00:00,308.0,1.58,303.0,2.02,12.65,47.59359,-54.27349
2021-08-23 03:24:01+00:00,300.0,1.91,302.0,2.14,12.65,47.59359,-54.27349
2021-08-23 03:34:01+00:00,301.0,1.73,304.0,2.19,12.65,47.59359,-54.27349
2021-08-23 03:44:01+00:00,277.0,1.89,268.0,2.4,12.65,47.59359,-54.27349
2021-08-23 03:54:01+00:00,285.0,2.08,287.0,2.35,12.65,47.59359,-54.27349
2021-08-23 04:04:01+00:00,285.0,2.03,284.0,2.32,12.65,47.59359,-54.27349
2021-08-23 04:14:00+00:00,282.0,2.58,275.0,3.05,12.65,47.59359,-54.27349
2021-08-23 04:24:00+00:00,292.0,2.03,291.0,2.38,12.65,47.59359,-54.27349
2021-08-23 04:34:00+00:00,295.0,1.78,294.0,2.04,12.65,47.59359,-54.27349
2021-08-23 04:44:00+00:00,278.0,2.48,276.0,2.89,12.65,47.59359,-54.27349
2021-08-23 04:54:00+00:00,279.0,2.64,272.0,3.1,12.65,47.59359,-54.27349
2021-08-23 05:04:00+00:00,268.0,2.95,270.0,3.71,12.65,47.59359,-54.27349
2021-08-23 05:14:01+00:00,272.0,2.44,262.0,3.0,12.57,47.59359,-54.27349
2021-08-23 05:24:01+00:00,272.0,2.82,270.0,3.27,12.57,47.59359,-54.27349
2021-08-23 05:34:01+00:00,262.0,2.61,263.0,3.05,12.57,47.59359,-54.27349
2021-08-23 05:44:01+00:00,265.0,2.19,256.0,2.59,12.57,47.59359,-54.27349
2021-08-23 05:54:01+00:00,266.0,2.37,263.0,2.7,12.57,47.59359,-54.27349
2021-08-23 06:04:01+00:00,276.0,2.45,275.0,2.91,12.57,47.59359,-54.27349
2021-08-23 06:14:01+00:00,282.0,2.63,287.0,3.17,12.57,47.59359,-54.27349
2021-08-23 06:24:01+00:00,271.0,2.81,274.0,3.46,12.57,47.59359,-54.27349
2021-08-23 06:34:01+00:00,281.0,2.09,285.0,2.59,12.57,47.59359,-54.27349
2021-08-23 06:44:01+00:00,260.0,2.87,259.0,3.45,12.57,47.59359,-54.27349
2021-08-23 06:54:01+00:00,246.0,3.19,249.0,3.87,12.57,47.59359,-54.27349
2021-08-23 07:04:01+00:00,255.0,3.41,257.0,3.84,12.57,47.59359,-54.27349
2021-08-23 07:14:01+00:00,250.0,3.14,256.0,3.61,12.57,47.59359,-54.27349
2021-08-23 07:24:01+00:00,253.0,3.01,250.0,3.47,12.57,47.59359,-54.27349
2021-08-23 07:34:01+00:00,255.0,2.62,255.0,3.13,12.57,47.59359,-54.27349
2021-08-23 07:44:01+00:00,255.0,3.16,259.0,3.7,12.57,47.59359,-54.27349
2021-08-23 07:54:01+00:00,267.0,3.08,269.0,3.69,12.57,47.59359,-54.27349
2021-08-23 08:04:01+00:00,281.0,0.98,271.0,1.25,12.57,47.59359,-54.27349
2021-08-23 08:14:01+00:00,295.0,1.24,289.0,1.62,12.49,47.59359,-54.27349
2021-08-23 08:24:01+00:00,312.0,1.06,314.0,1.25,12.49,47.59359,-54.27349
2021-08-23 08:34:01+00:00,321.0,1.23,317.0,1.46,12.49,47.59359,-54.27349
2021-08-23 08:44:01+00:00,293.0,1.43,291.0,1.74,12.49,47.59359,-54.27349
2021-08-23 08:54:01+00:00,299.0,1.41,304.0,1.73,12.49,47.59359,-54.27349
2021-08-23 09:04:01+00:00,311.0,1.47,314.0,1.78,12.49,47.59359,-54.27349
2021-08-23 09:14:01+00:00,265.0,2.15,265.0,2.74,12.49,47.59359,-54.27349
2021-08-23 09:24:01+00:00,306.0,2.33,307.0,2.89,12.49,47.59359,-54.27349
2021-08-23 09:34:01+00:00,312.0,1.84,311.0,2.27,12.49,47.59359,-54.27349
2021-08-23 09:44:01+00:00,249.0,2.38,237.0,3.19,12.49,47.59359,-54.27349
2021-08-23 09:54:01+00:00,263.0,3.55,256.0,4.45,12.49,47.59359,-54.27349
2021-08-23 10:04:01+00:00,224.0,2.82,224.0,3.2,12.49,47.59359,-54.27349
2021-08-23 10:14:01+00:00,243.0,3.33,256.0,3.86,13.44,47.59359,-54.27349
2021-08-23 10:24:01+00:00,218.0,2.8,227.0,3.5,13.44,47.59359,-54.27349
2021-08-23 10:34:01+00:00,206.0,2.96,206.0,3.32,13.44,47.59359,-54.27349
2021-08-23 10:44:01+00:00,218.0,3.14,214.0,3.91,13.44,47.59359,-54.27349
2021-08-23 10:54:01+00:00,219.0,3.51,227.0,4.55,13.44,47.59359,-54.27349
2021-08-23 11:04:01+00:00,217.0,4.01,218.0,4.54,13.44,47.59359,-54.27349
2021-08-23 11:14:01+00:00,230.0,4.4,233.0,5.33,13.76,47.59359,-54.27349
2021-08-23 11:24:01+00:00,235.0,5.23,235.0,6.04,13.76,47.59359,-54.27349
2021-08-23 11:34:01+00:00,250.0,4.53,259.0,5.13,13.76,47.59359,-54.27349
2021-08-23 11:44:01+00:00,235.0,3.77,235.0,4.23,13.76,47.59359,-54.27349
2021-08-23 11:54:01+00:00,234.0,4.56,232.0,5.11,13.76,47.59359,-54.27349
2021-08-23 12:04:01+00:00,234.0,5.03,240.0,5.95,13.76,47.59359,-54.27349
2021-08-23 12:14:01+00:00,228.0,5.48,219.0,6.19,14.0,47.59359,-54.27349
2021-08-23 12:24:01+00:00,225.0,5.88,226.0,7.08,14.0,47.59359,-54.27349
2021-08-23 12:34:01+00:00,227.0,5.26,217.0,7.0,14.0,47.59359,-54.27349
2021-08-23 12:44:01+00:00,232.0,5.52,244.0,7.37,14.0,47.59359,-54.27349
2021-08-23 12:54:01+00:00,226.0,6.47,230.0,6.94,14.0,47.59359,-54.27349
2021-08-23 13:04:01+00:00,227.0,6.42,233.0,7.57,14.0,47.59359,-54.27349
2021-08-23 13:14:01+00:00,220.0,6.16,220.0,6.76,13.84,47.59359,-54.27349
2021-08-23 13:24:01+00:00,214.0,5.57,217.0,6.59,13.84,47.59359,-54.27349
2021-08-23 13:34:01+00:00,213.0,6.25,214.0,6.92,13.84,47.59359,-54.27349
2021-08-23 13:44:01+00:00,213.0,6.68,214.0,7.6,13.84,47.59359,-54.27349
2021-08-23 13:54:01+00:00,216.0,6.68,216.0,7.53,13.84,47.59359,-54.27349
2021-08-23 14:04:01+00:00,209.0,7.54,216.0,8.45,13.84,47.59359,-54.27349
2021-08-23 14:14:01+00:00,214.0,7.14,214.0,8.09,13.84,47.59359,-54.27349
2021-08-23 14:24:01+00:00,209.0,7.84,212.0,8.71,13.84,47.59359,-54.27349
2021-08-23 14:34:01+00:00,214.0,7.57,206.0,9.03,13.84,47.59359,-54.27349
2021-08-23 14:44:01+00:00,213.0,8.3,212.0,9.1,13.84,47.59359,-54.27349
2021-08-23 14:54:01+00:00,209.0,8.06,210.0,9.16,13.84,47.59359,-54.27349
2021-08-23 15:04:01+00:00,205.0,7.64,209.0,8.34,13.84,47.59359,-54.27349
2021-08-23 15:14:01+00:00,206.0,7.61,209.0,8.56,13.92,47.59359,-54.27349
2021-08-23 15:24:01+00:00,201.0,7.68,195.0,8.63,13.92,47.59359,-54.27349
2021-08-23 15:34:01+00:00,202.0,8.37,203.0,9.14,13.92,47.59359,-54.27349
2021-08-23 15:44:01+00:00,199.0,8.13,201.0,9.19,13.92,47.59359,-54.27349
2021-08-23 15:54:01+00:00,198.0,8.34,195.0,9.1,13.92,47.59359,-54.27349
2021-08-23 16:04:01+00:00,196.0,8.92,198.0,9.7,13.92,47.59359,-54.27349
2021-08-23 16:14:01+00:00,204.0,9.66,209.0,10.35,14.24,47.59359,-54.27349
2021-08-23 16:24:01+00:00,202.0,8.43,202.0,9.69,14.24,47.59359,-54.27349
2021-08-23 16:34:01+00:00,205.0,10.39,207.0,11.29,14.24,47.59359,-54.27349
2021-08-23 16:44:01+00:00,208.0,9.07,207.0,10.19,14.24,47.59359,-54.27349
2021-08-23 16:54:01+00:00,205.0,9.27,205.0,10.55,14.24,47.59359,-54.27349
2021-08-23 17:04:01+00:00,201.0,9.35,193.0,10.37,14.24,47.59359,-54.27349
2021-08-23 17:14:01+00:00,206.0,9.54,204.0,10.44,13.84,47.59359,-54.27349
2021-08-23 17:24:01+00:00,208.0,8.73,209.0,9.76,13.84,47.59359,-54.27349
2021-08-23 17:34:01+00:00,210.0,9.6,212.0,11.64,13.84,47.59359,-54.27349
2021-08-23 17:44:01+00:00,211.0,8.39,212.0,9.96,13.84,47.59359,-54.27349
2021-08-23 17:54:01+00:00,216.0,9.31,223.0,11.04,13.84,47.59359,-54.27349
2021-08-23 18:04:01+00:00,220.0,8.92,227.0,10.93,13.84,47.59359,-54.27349
2021-08-23 18:14:01+00:00,233.0,7.89,236.0,9.25,13.84,47.59359,-54.27349
2021-08-23 18:24:01+00:00,238.0,6.2,241.0,7.3,13.84,47.59359,-54.27349
2021-08-23 18:34:01+00:00,254.0,6.11,254.0,7.01,13.84,47.59359,-54.27349
2021-08-23 18:44:01+00:00,256.0,7.47,259.0,9.64,13.84,47.59359,-54.27349
2021-08-23 18:54:01+00:00,249.0,5.81,258.0,7.72,13.84,47.59359,-54.27349
2021-08-23 19:04:01+00:00,252.0,9.15,253.0,11.03,13.84,47.59359,-54.27349
2021-08-23 19:14:01+00:00,240.0,5.71,238.0,6.57,13.68,47.59359,-54.27349
2021-08-23 19:24:01+00:00,259.0,9.63,264.0,11.34,13.68,47.59359,-54.27349
2021-08-23 19:34:01+00:00,260.0,8.55,264.0,10.11,13.68,47.59359,-54.27349
2021-08-23 19:44:01+00:00,257.0,8.84,263.0,11.23,13.68,47.59359,-54.27349
2021-08-23 19:54:01+00:00,263.0,11.06,271.0,12.86,13.68,47.59359,-54.27349
2021-08-23 20:04:01+00:00,257.0,8.11,253.0,9.25,13.68,47.59359,-54.27349
2021-08-23 20:14:01+00:00,257.0,6.87,251.0,9.54,13.53,47.59359,-54.27349
2021-08-23 20:24:01+00:00,247.0,5.31,250.0,6.48,13.53,47.59359,-54.27349
2021-08-23 20:34:01+00:00,241.0,6.53,242.0,7.88,13.53,47.59359,-54.27349
2021-08-23 20:44:01+00:00,242.0,5.59,242.0,6.76,13.53,47.59359,-54.27349
2021-08-23 20:54:01+00:00,243.0,3.52,256.0,4.48,13.53,47.59359,-54.27349
2021-08-23 21:04:01+00:00,251.0,6.21,256.0,7.11,13.53,47.59359,-54.27349
2021-08-23 21:14:01+00:00,261.0,9.41,263.0,11.31,13.44,47.59359,-54.27349
2021-08-23 21:24:01+00:00,246.0,8.14,258.0,11.46,13.44,47.59359,-54.27349
2021-08-23 21:34:01+00:00,258.0,11.56,262.0,13.55,13.44,47.59359,-54.27349
2021-08-23 21:44:01+00:00,254.0,6.57,258.0,8.09,13.44,47.59359,-54.27349
2021-08-23 21:54:01+00:00,266.0,8.72,266.0,10.42,13.44,47.59359,-54.27349
2021-08-23 22:04:01+00:00,267.0,8.07,266.0,9.48,13.44,47.59359,-54.27349
2021-08-23 22:14:01+00:00,256.0,5.62,253.0,6.5,13.21,47.59359,-54.27349
2021-08-23 22:24:01+00:00,246.0,4.31,247.0,4.99,13.21,47.59359,-54.27349
2021-08-23 22:34:01+00:00,255.0,6.91,265.0,8.22,13.21,47.59359,-54.27349
2021-08-23 22:44:01+00:00,247.0,6.16,250.0,7.0,13.21,47.59359,-54.27349
2021-08-23 22:54:01+00:00,254.0,7.78,255.0,9.09,13.21,47.59359,-54.27349
2021-08-23 23:04:01+00:00,252.0,6.65,258.0,7.75,13.21,47.59359,-54.27349
2021-08-23 23:14:00+00:00,256.0,6.36,257.0,7.42,12.73,47.59359,-54.27349
2021-08-23 23:24:00+00:00,258.0,7.31,258.0,7.85,12.73,47.59359,-54.27349
2021-08-23 23:34:00+00:00,256.0,6.87,251.0,8.03,12.73,47.59359,-54.27349
2021-08-23 23:44:00+00:00,259.0,6.3,267.0,7.47,12.73,47.59359,-54.27349
2021-08-23 23:54:00+00:00,257.0,6.6,254.0,7.78,12.73,47.59359,-54.27349
